Regional Weather Roundup
Issued by NWS Newport/Morehead, NC

Current Version | Previous Version | Graphics & Text | Print | Product List | Glossary On
Versions: 1 2 3 4 5 6 7 8 9 10 11 12 13 14 15 16 17 18 19 20 21 22 23 24 25 26 27 28 29 30 31 32 33 34 35 36 37 38 39 40 41 42 43 44 45 46 47 48 49 50
000 ASUS42 KMHX 160310 RWRMHX WEATHER ROUNDUP FOR EASTERN NORTH CAROLINA NATIONAL WEATHER SERVICE NEWPORT/MOREHEAD CITY NC 1100 PM EDT MON SEP 15 2014 NOTE: "FAIR" INDICATES FEW OR NO CLOUDS BELOW 12,000 FEET WITH NO SIGNIFICANT WEATHER AND/OR OBSTRUCTIONS TO VISIBILITY NCZ015>017-031-032-045>047-102-103-160400- NORTH COAST CITY SKY/WX TMP DP RH WIND PRES REMARKS EDENTON CLOUDY 70 63 78 CALM 30.14S ELIZABETH CITY CLOUDY 69 62 78 CALM 30.13F KITTY HAWK CLOUDY 70 60 69 CALM 30.12F MANTEO MOCLDY 68 61 76 CALM 30.13F $$ NCZ045>047-081-094-103-104-160400- CENTRAL COAST CITY SKY/WX TMP DP RH WIND PRES REMARKS FRISCO PTCLDY 68 63 84 NE5 30.13S SWANQUARTER N/A 70 N/A N/A E1 30.09S $$ NCZ095-097-098-100-101-160400- SOUTHERN COAST CITY SKY/WX TMP DP RH WIND PRES REMARKS BEAUFORT CLOUDY 73 66 78 NE3 30.14S CEDAR ISLAND N/A 73 N/A N/A E2 30.18S JACKSONVILLE CLOUDY 72 68 87 CALM 30.14S NEWPORT NOT AVBL PINEY ISLAND CLOUDY 74 68 81 S3 30.13F WILMINGTON CLOUDY 73 68 84 N5 30.14S $$ NCZ011>013-027>030-043-044-078>080-089-090>093-098-160400- COASTAL PLAIN CITY SKY/WX TMP DP RH WIND PRES REMARKS AHOSKIE CLOUDY 67 65 93 CALM 30.14S CLINTON CLOUDY 71 69 95 CALM 30.14F ELIZABETHTOWN CLOUDY 72 70 93 CALM 30.13F GOLDSBORO MOCLDY 70 69 98 SE1 30.12S GREENVILLE CLOUDY 70 70 100 CALM 30.15S HAVELOCK CLOUDY 72 67 84 CALM 30.15S KENANSVILLE CLOUDY 70 68 94 CALM 30.15S KINSTON CLOUDY 72 67 84 SE5 30.14F NEW BERN CLOUDY 73 69 87 CALM 30.15F RICHLANDS CLOUDY 72 66 83 CALM 30.15S ROANOKE RAPIDS NOT AVBL ROCKY MOUNT CLOUDY 69 67 93 CALM 30.13F WASHINGTON CLOUDY 70 67 89 CALM 30.14S WHITEVILLE MOCLDY 71 69 95 CALM 30.13F FOG $$ AMZ130-135-150-152-154-156-158-170-250-252-270-ANZ085-086-088-633-658-670-160400- MARINE OBSERVATIONS STATION/POSITION TIME TEMP WIND PRES WAVE SWELL AIR SEA DIR/SP/G HT/PER HT/PER (UTC) (F) (DEG/KT/KT) (MB) (FT/S) (FT/S) CHESAPEAKE LIGHT 0200 69 150/ 6/ 7 1021.0 BUOY 44014 0300 71 79 90/ 6/ 6 1019.9 2/ 8 2/ 8 DUCK 0300 1019.7 2E DUCK 0300 N/A 2/ 7 OREGON INLET 0300 1020.4 BUOY 44095 0300 76 N/A 3/ 7 20E OREGON INLET NOT AVBL HATTERAS CG 0300 1020.9 DIAMOND BUOY 0300 73 340/ 10/ 12 1020.1 3/ 8 3/ 8 CAPE LOOKOUT 0200 74 10/ 5/ 5 1020.4 BEAUFORT LAB 0300 1020.0 30 SE NEW RIVER 0300 77 82 20/ 4/ 6 1020.6 2/ 9 2/ 9 5 SE WRIGHTSVILL 0200 73 81 10/ 8/ 10 N/A BUOY 41002 0204 80 83 300/ 4/ 10 1020.1 3/ 6 BUOY 41004 0300 80 83 200/ 2/ 4 1019.6 2/ 4 2/ 4 $$

USA.gov is the U.S. government's official web portal to all federal, state and local government web resources and services.